Location: Roland
(31.1349°N, 85.4372°W)
Time: 00:27:57
(UTC+00:00)

S-56A Canister/Altair - Pass Details

Date: 23 April 2021
Orbit: 632 x 2500 km, 38.9° (Epoch: 06 May)

Event Time Altitude Azimuth Distance (km) Brightness Sun altitude
Exits shadow 08:33:35 43° 82° (E) 924 8.2 -29.6°
Drops below altitude 10° 08:36:39 10° 103° (ESE) 2,005 10.1 -29.1°
Sets 08:38:52 0° 106° (ESE) 2,912 11.0 -28.7°
